Flag for Turkey Weather past 2 weeks in Istanbul, Turkey

Now
54 °F

Broken clouds.


Feels Like: 47 °F
Forecast: 56 / 62 °F
Wind: 26 mph from Southwest

Location: Istanbul Ataturk Airport

Current Time: Jan 31, 2015 at 9:40:16 AM

Latest Report: Jan 31, 2015 at 8:50 AM


Visibility: N/A

Pressure: 29.42 "Hg

Humidity: 72%

Dew point: 45 °F

Location of IstanbulLocation

Historic Weather in Istanbul — Graph

°F

Istanbul temperature yesterday

Maximum temperature yesterday: 54 °F (at 11:50 AM)
Minimum temperature yesterday: 45 °F (at 4:20 AM)
Average temperature yesterday: 51 °F

Past Weeks' High & Low Weather Summary

 TemperatureHumidityPressure
High61 °F (Jan 22, 2:50 PM)93% (Jan 18, 3:50 AM)30.36 "Hg (Jan 18, 3:50 AM)
Low36 °F (Jan 17, 6:20 AM)39% (Jan 23, 12:20 PM)29.42 "Hg (Jan 31, 7:20 AM)
Average50 °F70%30.00 "Hg
* Reported Jan 16 8:20 AM — Jan 31 8:20 AM, Istanbul, Weather by CustomWeather, © 2014

Note: Actual official high and low records may vary slightly from our data, if they occured in-between our weather recording intervals... More about our weather records

Advertising

Istanbul weather history for previous 24 hours

 ConditionsComfort  
Time TempWeatherWind HumidityBarometerVisibility
8:20 AM
Jan 31
52 °FBroken clouds.16 mph77%29.45 "HgN/A
7:50 AM54 °FBroken clouds.22 mph72%29.45 "HgN/A
7:20 AM52 °FBroken clouds.20 mph82%29.42 "HgN/A
6:50 AM52 °FSprinkles. Partly cloudy.24 mph77%29.45 "HgN/A
6:20 AM52 °FPartly cloudy.28 mph77%29.45 "HgN/A
5:50 AM54 °FSprinkles. Partly cloudy.36 mph72%29.45 "HgN/A
4:50 AM54 °FPassing clouds.21 mph72%29.47 "HgN/A
4:20 AM54 °FPassing clouds.26 mph72%29.45 "HgN/A
3:50 AM54 °FPassing clouds.20 mph72%29.47 "HgN/A
3:20 AM54 °FPassing clouds.21 mph72%29.47 "HgN/A
2:50 AM54 °FPassing clouds.22 mph67%29.50 "HgN/A
2:20 AM54 °FPassing clouds.14 mph67%29.50 "HgN/A
1:50 AM54 °FPassing clouds.16 mph67%29.50 "HgN/A
1:20 AM54 °FPassing clouds.23 mph67%29.50 "HgN/A
12:50 AM54 °FPassing clouds.15 mph67%29.50 "HgN/A
12:20 AM54 °FPassing clouds.21 mph67%29.50 "HgN/A
11:50 PM
Jan 30
52 °FPartly cloudy.10 mph77%29.53 "HgN/A
11:20 PM52 °FPartly cloudy.14 mph77%29.53 "HgN/A
10:50 PM54 °FPartly cloudy.16 mph67%29.56 "HgN/A
10:20 PM54 °FSprinkles. Partly cloudy.16 mph67%29.56 "HgN/A
9:50 PM52 °FPartly cloudy.10 mph77%29.59 "HgN/A
9:20 PM54 °FPartly cloudy.15 mph72%29.59 "HgN/A
8:50 PM52 °FPartly cloudy.9 mph77%29.56 "HgN/A
8:20 PM52 °FPartly cloudy.10 mph77%29.59 "HgN/A
7:50 PM52 °FPartly cloudy.10 mph77%29.59 "HgN/A
7:20 PM52 °FPartly cloudy.7 mph77%29.59 "HgN/A
6:50 PM52 °FPartly cloudy.9 mph77%29.59 "HgN/A
6:20 PM54 °FPartly cloudy.10 mph67%29.59 "HgN/A
5:50 PM54 °FPartly cloudy.12 mph67%29.59 "HgN/A
5:20 PM54 °FPartly cloudy.15 mph67%29.59 "HgN/A
4:50 PM54 °FBroken clouds.14 mph67%29.59 "HgN/A
4:20 PM54 °FBroken clouds.14 mph67%29.59 "HgN/A
3:50 PM54 °FScattered clouds.10 mph72%29.59 "HgN/A
3:20 PM54 °FPartly sunny.16 mph67%29.62 "HgN/A
2:50 PM54 °FPartly sunny.12 mph67%29.62 "HgN/A
2:20 PM54 °FPassing clouds.12 mph72%29.62 "HgN/A
1:50 PM54 °FSunny.12 mph67%29.62 "Hg10 mi
1:20 PM54 °FSunny.10 mph67%29.62 "Hg10 mi
12:50 PM54 °FSunny.12 mph67%29.65 "Hg10 mi
12:20 PM54 °FPartly sunny.14 mph67%29.65 "HgN/A
11:50 AM54 °FPartly sunny.10 mph72%29.65 "HgN/A
11:20 AM52 °FPartly sunny.12 mph72%29.68 "HgN/A
10:50 AM52 °FSunny.14 mph72%29.68 "Hg10 mi
10:20 AM52 °FPassing clouds.12 mph72%29.68 "HgN/A
9:50 AM52 °FSunny.10 mph67%29.68 "Hg10 mi
9:20 AM52 °FSunny.9 mph72%29.68 "Hg10 mi
Weather by CustomWeather, © 2014

See weather overviewHow to use our weather pages